TimeEST,TemperatureF,Dew PointF,Humidity,Sea Level PressureIn,VisibilityMPH,Wind Direction,Wind SpeedMPH,Gust SpeedMPH,PrecipitationIn,Events,Conditions,WindDirDegrees,DateUTC
12:56 AM,30.9,21.0,67,30.53,10.0,North,4.6,-,N/A,,Overcast,10,2012-11-14 05:56:00
1:56 AM,30.9,21.0,67,30.53,10.0,North,8.1,-,N/A,,Overcast,10,2012-11-14 06:56:00
2:56 AM,30.9,21.0,67,30.53,10.0,North,6.9,-,N/A,,Overcast,10,2012-11-14 07:56:00
3:56 AM,30.0,21.9,72,30.53,10.0,NE,4.6,-,N/A,,Overcast,40,2012-11-14 08:56:00
4:56 AM,30.0,21.0,69,30.53,10.0,NE,6.9,-,N/A,,Overcast,40,2012-11-14 09:56:00
5:56 AM,30.0,21.0,69,30.55,10.0,ENE,4.6,-,N/A,,Overcast,60,2012-11-14 10:56:00
6:56 AM,30.0,21.0,69,30.56,10.0,ENE,4.6,-,N/A,,Overcast,60,2012-11-14 11:56:00
7:56 AM,30.0,21.0,69,30.57,10.0,ENE,5.8,-,N/A,,Overcast,60,2012-11-14 12:56:00
9:56 AM,30.9,19.9,64,30.58,10.0,ENE,6.9,-,N/A,,Overcast,70,2012-11-14 14:56:00
10:56 AM,32.0,19.9,61,30.57,10.0,Variable,3.5,-,N/A,,Overcast,0,2012-11-14 15:56:00
11:56 AM,35.1,21.0,57,30.54,10.0,ENE,9.2,-,N/A,,Mostly Cloudy,70,2012-11-14 16:56:00
12:04 PM,35.6,21.2,56,30.48,10.0,Variable,5.8,-,N/A,,Scattered Clouds,0,2012-11-14 17:04:00
12:56 PM,37.0,19.9,50,30.51,10.0,Variable,3.5,-,N/A,,Clear,0,2012-11-14 17:56:00
1:56 PM,39.0,19.9,46,30.49,10.0,NE,3.5,-,N/A,,Clear,50,2012-11-14 18:56:00
2:56 PM,39.9,21.0,47,30.48,10.0,ENE,5.8,-,N/A,,Clear,70,2012-11-14 19:56:00
3:56 PM,37.9,21.0,51,30.47,10.0,NE,4.6,-,N/A,,Clear,50,2012-11-14 20:56:00
4:56 PM,36.0,21.0,55,30.46,10.0,ENE,3.5,-,N/A,,Clear,60,2012-11-14 21:56:00
5:56 PM,34.0,21.0,59,30.46,10.0,ENE,5.8,-,N/A,,Clear,60,2012-11-14 22:56:00
6:56 PM,32.0,21.0,64,30.46,10.0,ENE,4.6,-,N/A,,Clear,70,2012-11-14 23:56:00
7:56 PM,30.9,21.0,67,30.47,10.0,Calm,Calm,-,N/A,,Clear,0,2012-11-15 00:56:00
8:56 PM,30.9,21.0,67,30.48,10.0,ENE,3.5,-,N/A,,Clear,70,2012-11-15 01:56:00
9:56 PM,28.9,21.0,72,30.46,10.0,East,6.9,-,N/A,,Clear,100,2012-11-15 02:56:00
10:56 PM,28.0,21.0,75,30.46,10.0,East,4.6,-,N/A,,Clear,80,2012-11-15 03:56:00
11:56 PM,27.0,21.0,78,30.44,10.0,East,5.8,-,N/A,,Clear,80,2012-11-15 04:56:00